Content
SEND FEEDBACK

Daily
Averages
Monthly
Summary
United States of America

YALE LAKE, WASHINGTON


Home > North America > United States > Washington
Elevation: 600 feet     Latitude: 46 03N     Longitude: 122 12W

WEATHER
 
SELECT A DAY
Number of Records: 193,449;   Date Range: 1/1/95 - 11/23/14
 
SHARE

PRINT THIS DATA

[ ← Previous Day ]
WEATHER ALMANAC - JANUARY 31, 2013
[ Next Day → ]
[ °C ]   °F
Weather ElementAverageHighLow
Temperature47.2 °F52 °F (2:53 pm)44.1 °F (3:53 am)
Dewpoint44.2 °F45 °F (12:53 am)42.1 °F (3:53 am)
Humidity89.4 %100 % (3:41 am)74 % (2:53 pm)
Barometer30.40 in30.45 in (12:38 am)30.34 in (5:53 pm)
Wind Speed0.7 mph4.6 mph (1:04 am)
Weather ElementAverage
Visibility6.8 mi
Wind DirectionNNE (20.6 °)

Weather ElementTotal
Precipitation0.02 in
Heating Degree Days17 (Base 65)
Averaged from 49 records on January 31, 2013
WEATHER CONDITIONS BREAKOUT
WIND DIRECTION BREAKOUT
WEATHER BY HOUR - JANUARY 31, 2013
[ °C ]   °F
Local TimeTemperatureDewpointHumidityBarometerVisibilityWind DirectionWind SpeedGust SpeedPrecipitationEventsConditions
12:38 AM48.2 °F44.6 °F87 %30.45 in5.0 miCalm0.01 inOvercast
12:53 AM48.0 °F45.0 °F89 %30.45 in7.0 miCalm0.01 inOvercast
1:04 AM48.2 °F44.6 °F87 %30.45 in10.0 miSSE (150°)4.6 mphOvercast
1:24 AM48.2 °F44.6 °F87 %30.44 in10.0 miCalmOvercast
1:53 AM46.9 °F45.0 °F93 %30.45 in10.0 miCalmOvercast
2:03 AM48.2 °F44.6 °F87 %30.45 in10.0 miCalmOvercast
2:12 AM48.2 °F44.6 °F87 %30.45 in10.0 miCalmOvercast
2:53 AM46.9 °F45.0 °F93 %30.44 in10.0 miCalmOvercast
3:17 AM46.4 °F44.6 °F93 %30.43 in10.0 miCalmOvercast
3:24 AM46.4 °F44.6 °F93 %30.43 in10.0 miCalmOvercast
3:38 AM46.4 °F44.6 °F93 %30.43 in1.8 miCalmOvercast
3:41 AM44.6 °F44.6 °F100 %30.43 in1.0 miCalmOvercast
3:53 AM44.1 °F42.1 °F93 %30.43 in3.0 miCalmOvercast
4:53 AM46.0 °F44.1 °F93 %30.42 in10.0 miCalmOvercast
5:17 AM46.4 °F44.6 °F93 %30.42 in9.0 miCalmOvercast
5:53 AM45.0 °F44.1 °F97 %30.41 in5.0 miCalmOvercast
6:03 AM44.6 °F42.8 °F93 %30.41 in7.0 miCalmOvercast
6:28 AM44.6 °F42.8 °F93 %30.42 in2.0 miCalmOvercast
6:39 AM44.6 °F42.8 °F93 %30.42 in5.0 miWNW (300°)3.5 mphOvercast
6:53 AM45.0 °F43.0 °F93 %30.42 in4.0 miCalmOvercast
7:15 AM44.6 °F42.8 °F93 %30.42 in1.8 miCalmOvercast
7:31 AM44.6 °F42.8 °F93 %30.42 in1.0 miCalmOvercast
7:53 AM45.0 °F43.0 °F93 %30.43 in0.8 miCalmOvercast
7:59 AM44.6 °F44.6 °F100 %30.42 in1.2 miCalmOvercast
8:06 AM44.6 °F42.8 °F93 %30.42 in2.0 miCalmOvercast
8:10 AM44.6 °F42.8 °F93 %30.42 in1.0 miNW (320°)3.5 mphOvercast
8:53 AM45.0 °F43.0 °F93 %30.43 in1.0 miCalmOvercast
9:00 AM44.6 °F44.6 °F100 %30.43 in1.5 miCalmOvercast
9:53 AM46.9 °F44.1 °F90 %30.43 in2.0 miCalmOvercast
10:20 AM48.2 °F44.6 °F87 %30.43 in3.0 miCalmOvercast
10:53 AM48.0 °F44.1 °F86 %30.43 in6.0 miCalmOvercast
11:53 AM50.0 °F45.0 °F83 %30.41 in10.0 miNorth (10°)3.5 mphOvercast
12:00 PM48.2 °F44.6 °F87 %30.40 in10.0 miNorth (10°)4.6 mphOvercast
12:24 PM50.0 °F44.6 °F82 %30.39 in10.0 miNNE (20°)3.5 mphOvercast
12:53 PM50.0 °F45.0 °F83 %30.39 in10.0 miNNE (30°)4.6 mphMostly Cloudy
1:53 PM51.1 °F44.1 °F77 %30.38 in10.0 miCalmMostly Cloudy
2:53 PM52.0 °F44.1 °F74 %30.36 in10.0 miCalmOvercast
3:53 PM52.0 °F44.1 °F74 %30.36 in10.0 miCalmOvercast
4:53 PM51.1 °F45.0 °F80 %30.35 in10.0 miCalmOvercast
5:53 PM48.9 °F45.0 °F86 %30.34 in10.0 miCalmOvercast
6:20 PM48.2 °F44.6 °F87 %30.34 in10.0 miCalmOvercast
6:53 PM48.9 °F45.0 °F86 %30.34 in9.0 miENE (70°)3.5 mphOvercast
7:35 PM48.2 °F44.6 °F87 %30.35 in8.0 miCalm0.00 inOvercast
7:53 PM48.0 °F45.0 °F89 %30.34 in10.0 miCalm0.00 inOvercast
8:21 PM48.2 °F44.6 °F87 %30.34 in10.0 miCalmOvercast
8:53 PM46.9 °F45.0 °F93 %30.35 in7.0 miEast (100°)3.5 mphOvercast
10:21 PM46.4 °F44.6 °F93 %30.34 in7.0 miCalmOvercast
10:46 PM48.2 °F44.6 °F87 %30.35 in10.0 miCalmOvercast
10:53 PM48.0 °F45.0 °F89 %30.35 in10.0 miCalmOvercast
Hourly data recorded from KTTD, located miles away from Yale Lake, Washington







STORIES FROM OUR PARTNERS